Track GONETS-M 8 now! 10-day predictions GONETS-M 8 is classified as:
1 40061U 14036A 24325.94734261 .00000017 00000-0 55722-4 0 9990 2 40061 82.5077 303.6500 0029219 322.1179 37.7845 12.42958404471237